Flag for Cambodia Weather past 2 weeks in Phnom Penh, Cambodia

Now
84 °F

Scattered clouds.


Feels Like: 91 °F
Forecast: 79 / 90 °F
Wind: 7 mph from Southwest

Location: Ubon Ratchathani Airport

Current Time: Aug 5, 2015 at 11:58:43 AM

Latest Report: Aug 5, 2015 at 11:00 AM


Visibility: 6 mi

Pressure: 29.77 "Hg

Humidity: 70%

Dew point: 73 °F

Location of Phnom PenhLocation

Historic Weather in Phnom Penh — Graph

°F

Phnom Penh temperature yesterday

Maximum temperature yesterday: 93 °F (at 3:00 PM)
Minimum temperature yesterday: 77 °F (at 12:00 AM)
Average temperature yesterday: 84 °F

Past Weeks' High & Low Weather Summary

 TemperatureHumidityPressure
High93 °F (Aug 4, 3:00 PM)100% (Jul 22, 5:00 AM)29.92 "Hg (Jul 22, 5:00 AM)
Low73 °F (Jul 27, 5:00 AM)44% (Jul 24, 4:00 PM)29.65 "Hg (Aug 4, 4:00 PM)
Average80 °F84%29.83 "Hg
* Reported Jul 21 10:00 AM — Aug 5 10:00 AM, Phnom Penh, Weather by CustomWeather, © 2015

Note: Actual official high and low records may vary slightly from our data, if they occured in-between our weather recording intervals... More about our weather records

Advertising

Phnom Penh weather history for previous 24 hours

 ConditionsComfort  
Time TempWeatherWind HumidityBarometerVisibility
10:00 AM
Wed, Aug 5
84 °FScattered clouds.9 mph74%29.74 "Hg6 mi
9:00 AM84 °FScattered clouds.3 mph84%29.74 "Hg6 mi
8:00 AM79 °FScattered clouds.2 mph94%29.74 "Hg6 mi
7:00 AM75 °FScattered clouds.2 mph100%29.74 "Hg6 mi
6:30 AM75 °FBroken clouds.2 mph100%29.74 "Hg6 mi
6:00 AM75 °FMostly cloudy.2 mph100%29.74 "Hg6 mi
5:00 AM75 °FLight rain. Mostly cloudy.No wind100%29.74 "Hg6 mi
4:00 AM75 °FLight rain. Mostly cloudy.2 mph100%29.74 "Hg5 mi
3:00 AM75 °FLight rain. Mostly cloudy.No wind100%29.74 "Hg5 mi
11:00 PM
Tue, Aug 4
81 °FPassing clouds.3 mph84%29.77 "Hg6 mi
10:00 PM79 °FPassing clouds.2 mph89%29.77 "Hg5 mi
9:00 PM81 °FPassing clouds.2 mph84%29.74 "Hg5 mi
8:00 PM81 °FPassing clouds.No wind79%29.71 "Hg4 mi
7:00 PM84 °FPassing clouds.3 mph70%29.71 "Hg6 mi
6:30 PM90 °FPassing clouds.5 mph55%29.65 "HgN/A
6:00 PM90 °FPassing clouds.5 mph55%29.65 "HgN/A
5:30 PM90 °FPassing clouds.5 mph52%29.65 "HgN/A
5:00 PM90 °FScattered clouds.7 mph52%29.65 "HgN/A
4:00 PM91 °FScattered clouds.6 mph49%29.65 "HgN/A
3:00 PM93 °FScattered clouds.7 mph47%29.68 "HgN/A
2:00 PM91 °FScattered clouds.6 mph52%29.68 "HgN/A
1:00 PM91 °FScattered clouds.8 mph49%29.71 "HgN/A
12:00 PM90 °FScattered clouds.8 mph55%29.74 "HgN/A
11:00 AM88 °FScattered clouds.5 mph62%29.77 "HgN/A
Weather by CustomWeather, © 2015

See weather overviewHow to use our weather pages